Rockwood, MI

2:13 PM EST on February 25, 2017 (GMT -0500)
Grosse Ile Municipal

Weather History for KONZ - February, 2013

Change the Weather History Date:

Wednesday, February 27, 2013

  Actual Average (KDTW) Record (KDTW)
Temperature  
Mean Temperature 35 °F -  
Max Temperature 37 °F 39 °F 63 °F (1976)
Min Temperature 33 °F 22 °F -4 °F (1934)
Degree Days  
Heating Degree Days 30    
Moisture  
Dew Point 32 °F    
Average Humidity 89    
Maximum Humidity 93    
Minimum Humidity 81    
Precipitation  
Precipitation 0.35 in - - ()
Sea Level Pressure  
Sea Level Pressure 29.51 in    
Wind  
Wind Speed 10 mph (SSW)    
Max Wind Speed 18 mph    
Max Gust Speed 24 mph    
Visibility 6 miles    
Events Rain , Snow    
Averages and records for this station are not official NWS values.
T = Trace of Precipitation, MM = Missing Value Source: NWS Daily Summary

Daily Weather History Graph

Daily Weather History Graph

Search for Another Location

Airport or City:

Trip Planner

Search our weather history database for the weather conditions in past years. The results will help you decide how hot, cold, wet, or windy it might be!

Date:

Astronomy

Feb. 27, 2013 Rise Set
Actual Time 7:10 AM EST 6:20 PM EST
Civil Twilight 6:42 AM EST 6:48 PM EST
Nautical Twilight 6:10 AM EST 7:21 PM EST
Astronomical Twilight 5:37 AM EST 7:53 PM EST
Moon 8:44 PM EST (2/27) 7:42 AM EST (2/27)
Length of Visible Light 12h 06m
Length of Day
11h 10m
Waning Gibbous, 96% of the Moon is Illuminated
Feb 27
Waning Gibbous
Mar 4
Last Quarter
Mar 11
New
Mar 19
First Quarter
Mar 27
Full

Hourly Weather History & Observations

Time (EST) Temp. Windchill Dew Point Humidity Pressure Visibility Wind Dir Wind Speed Gust Speed Precip Events Conditions
12:14 AM 33.8 °F 23.5 °F 30.2 °F 87% 29.47 in 2.5 mi ENE 16.1 mph 24.2 mph 0.03 in Snow Light Snow
12:34 AM 33.8 °F 25.3 °F 30.2 °F 87% 29.46 in 4.0 mi East 11.5 mph 19.6 mph 0.07 in Snow Light Snow
12:54 AM 33.8 °F 25.3 °F 32.0 °F 93% 29.46 in 5.0 mi East 11.5 mph 17.3 mph 0.12 in Snow Light Snow
1:14 AM 35.6 °F 27.5 °F 32.0 °F 87% 29.45 in 7.0 mi East 11.5 mph 19.6 mph N/A Rain Rain
1:34 AM 35.6 °F 28.0 °F 32.0 °F 87% 29.45 in 7.0 mi East 10.4 mph 18.4 mph N/A Rain Light Rain
1:54 AM 35.6 °F 25.2 °F 32.0 °F 87% 29.45 in 3.0 mi ESE 18.4 mph 21.9 mph 0.05 in   Overcast
2:14 AM 35.6 °F 27.1 °F 33.8 °F 93% 29.44 in 5.0 mi East 12.7 mph - 0.04 in   Overcast
2:34 AM 35.6 °F 28.0 °F 33.8 °F 93% 29.44 in 5.0 mi East 10.4 mph - 0.05 in Rain Light Rain
2:54 AM 35.6 °F 29.2 °F 32.0 °F 87% 29.44 in 7.0 mi East 8.1 mph - 0.07 in   Overcast
3:14 AM 35.6 °F 29.2 °F 33.8 °F 93% 29.43 in 10.0 mi East 8.1 mph - N/A Rain Light Rain
3:34 AM 35.6 °F 29.9 °F 33.8 °F 93% 29.42 in 10.0 mi East 6.9 mph - N/A   Light Drizzle
3:54 AM 35.6 °F 29.2 °F 33.8 °F 93% 29.42 in 7.0 mi East 8.1 mph - N/A   Light Drizzle
4:14 AM 35.6 °F 30.7 °F 33.8 °F 93% 29.42 in 7.0 mi East 5.8 mph - N/A   Overcast
4:34 AM 35.6 °F - 33.8 °F 93% 29.43 in 5.0 mi Calm Calm - N/A   Overcast
4:54 AM 35.6 °F 32.8 °F 33.8 °F 93% 29.43 in 3.0 mi SSE 3.5 mph - N/A   Overcast
5:14 AM 35.6 °F 28.6 °F 33.8 °F 93% 29.44 in 1.5 mi South 9.2 mph - N/A   Overcast
5:34 AM 35.6 °F 29.9 °F 33.8 °F 93% 29.44 in 1.0 mi South 6.9 mph - N/A   Overcast
5:54 AM 35.6 °F 29.9 °F 33.8 °F 93% 29.45 in 1.5 mi SSW 6.9 mph - N/A   Overcast
6:14 AM 35.6 °F 29.2 °F 33.8 °F 93% 29.46 in 3.0 mi SSW 8.1 mph - N/A   Overcast
6:34 AM 35.6 °F 29.9 °F 33.8 °F 93% 29.46 in 5.0 mi SSW 6.9 mph - N/A   Overcast
6:54 AM 35.6 °F 29.9 °F 33.8 °F 93% 29.47 in 5.0 mi SSW 6.9 mph - N/A   Overcast
7:14 AM 35.6 °F 28.6 °F 33.8 °F 93% 29.47 in 10.0 mi SSW 9.2 mph - N/A   Overcast
7:34 AM 35.6 °F 29.9 °F 33.8 °F 93% 29.48 in 7.0 mi SSW 6.9 mph - N/A   Overcast
7:54 AM 35.6 °F 29.2 °F 32.0 °F 87% 29.49 in 7.0 mi South 8.1 mph - N/A   Overcast
8:14 AM 35.6 °F 27.5 °F 33.8 °F 93% 29.50 in 7.0 mi SSW 11.5 mph - N/A   Overcast
8:34 AM 35.6 °F 28.0 °F 33.8 °F 93% 29.51 in 10.0 mi SSW 10.4 mph - N/A   Overcast
8:54 AM 35.6 °F 28.6 °F 33.8 °F 93% 29.52 in 10.0 mi SSW 9.2 mph - N/A   Overcast
9:14 AM 35.6 °F 29.2 °F 33.8 °F 93% 29.52 in 7.0 mi SSW 8.1 mph - N/A   Overcast
9:34 AM 35.6 °F 27.5 °F 33.8 °F 93% 29.52 in 7.0 mi SSW 11.5 mph - N/A   Overcast
9:54 AM 35.6 °F 28.0 °F 33.8 °F 93% 29.52 in 10.0 mi SSW 10.4 mph - N/A   Overcast
10:15 AM 35.6 °F 29.2 °F 33.8 °F 93% 29.52 in 10.0 mi SSW 8.1 mph - N/A   Overcast
10:34 AM 35.6 °F 28.6 °F 33.8 °F 93% 29.52 in 10.0 mi SSW 9.2 mph - N/A   Overcast
10:54 AM 37.4 °F 29.8 °F 33.8 °F 87% 29.52 in 10.0 mi SW 11.5 mph 16.1 mph N/A   Overcast
11:14 AM 37.4 °F 30.8 °F 33.8 °F 87% 29.53 in 10.0 mi SW 9.2 mph 17.3 mph N/A   Overcast
11:54 AM 37.4 °F 30.3 °F 33.8 °F 87% 29.54 in 10.0 mi SW 10.4 mph - N/A   Overcast
12:14 PM 37.4 °F 30.3 °F 33.8 °F 87% 29.54 in 10.0 mi SW 10.4 mph 16.1 mph N/A   Overcast
12:34 PM 37.4 °F 29.8 °F 32.0 °F 81% 29.54 in 10.0 mi SW 11.5 mph 17.3 mph N/A   Overcast
12:54 PM 37.4 °F 29.8 °F 32.0 °F 81% 29.54 in 10.0 mi SW 11.5 mph 17.3 mph N/A   Overcast
1:14 PM 37.4 °F 30.3 °F 32.0 °F 81% 29.54 in 10.0 mi SW 10.4 mph - N/A   Overcast
1:34 PM 37.4 °F 30.3 °F 32.0 °F 81% 29.54 in 10.0 mi WSW 10.4 mph 16.1 mph N/A   Overcast
1:54 PM 37.4 °F 31.4 °F 32.0 °F 81% 29.54 in 10.0 mi SW 8.1 mph - N/A Rain Light Rain
2:14 PM 35.6 °F 29.2 °F 32.0 °F 87% 29.54 in 7.0 mi SSW 8.1 mph - N/A Snow Light Snow
2:34 PM 35.6 °F 29.2 °F 32.0 °F 87% 29.54 in 5.0 mi SSW 8.1 mph - N/A Snow Light Snow
2:54 PM 33.8 °F 26.4 °F 30.2 °F 87% 29.54 in 3.0 mi South 9.2 mph - N/A Snow Light Snow
3:14 PM 33.8 °F 27.0 °F 30.2 °F 87% 29.55 in 1.0 mi SSW 8.1 mph - N/A Snow Light Snow
3:34 PM 33.8 °F 27.7 °F 30.2 °F 87% 29.55 in 0.8 mi South 6.9 mph - 0.01 in Snow Light Snow
3:54 PM 33.8 °F 27.7 °F 30.2 °F 87% 29.55 in 1.0 mi South 6.9 mph - 0.03 in Snow Light Snow
4:14 PM 33.8 °F 27.7 °F 30.2 °F 87% 29.55 in 1.0 mi South 6.9 mph - N/A Snow Light Snow
4:35 PM 33.8 °F 27.7 °F 30.2 °F 87% 29.55 in 1.5 mi South 6.9 mph - 0.01 in Snow Light Snow
4:54 PM 33.8 °F 27.7 °F 30.2 °F 87% 29.56 in 1.2 mi South 6.9 mph - 0.01 in Snow Light Snow
5:14 PM 33.8 °F 28.6 °F 30.2 °F 87% 29.56 in 0.5 mi South 5.8 mph - 0.02 in Snow Light Snow
5:34 PM 33.8 °F 27.7 °F 30.2 °F 87% 29.56 in 0.5 mi SSW 6.9 mph - 0.04 in Snow Snow
5:54 PM 33.8 °F 28.6 °F 30.2 °F 87% 29.57 in 1.0 mi SSW 5.8 mph - 0.06 in Snow Light Snow
6:14 PM 33.8 °F 27.0 °F 30.2 °F 87% 29.57 in 1.8 mi SSW 8.1 mph - N/A Snow Light Snow
6:34 PM 33.8 °F 27.7 °F 30.2 °F 87% 29.57 in 1.8 mi SSW 6.9 mph - N/A Snow Light Snow
6:54 PM 33.8 °F 28.6 °F 30.2 °F 87% 29.58 in 1.8 mi SSW 5.8 mph - 0.01 in Snow Light Snow
7:14 PM 33.8 °F 28.6 °F 30.2 °F 87% 29.58 in 1.8 mi SSW 5.8 mph - N/A Snow Light Snow
7:34 PM 33.8 °F 28.6 °F 30.2 °F 87% 29.58 in 2.0 mi SSW 5.8 mph - N/A Snow Light Snow
7:54 PM 33.8 °F 28.6 °F 30.2 °F 87% 29.57 in 2.0 mi SSW 5.8 mph - N/A Snow Light Snow
8:14 PM 33.8 °F 28.6 °F 30.2 °F 87% 29.57 in 2.5 mi SSW 5.8 mph - N/A Snow Light Snow
8:34 PM 33.8 °F 27.0 °F 30.2 °F 87% 29.57 in 3.0 mi SSW 8.1 mph - N/A Snow Light Snow
9:14 PM 33.8 °F 29.6 °F 30.2 °F 87% 29.57 in 4.0 mi SW 4.6 mph - N/A Snow Light Snow
9:34 PM 33.8 °F 27.0 °F 30.2 °F 87% 29.57 in 4.0 mi SSW 8.1 mph - N/A Snow Light Snow
9:54 PM 33.8 °F 27.7 °F 30.2 °F 87% 29.57 in 4.0 mi SW 6.9 mph - N/A Snow Light Snow
10:14 PM 33.8 °F 28.6 °F 30.2 °F 87% 29.56 in 5.0 mi SW 5.8 mph - N/A Snow Light Snow
10:34 PM 33.8 °F 28.6 °F 30.2 °F 87% 29.56 in 7.0 mi SW 5.8 mph - N/A Snow Light Snow
10:54 PM 33.8 °F 28.6 °F 30.2 °F 87% 29.56 in 10.0 mi SW 5.8 mph - N/A   Overcast
11:14 PM 33.8 °F 28.6 °F 30.2 °F 87% 29.56 in 10.0 mi SW 5.8 mph - N/A   Overcast
11:34 PM 33.8 °F 29.6 °F 30.2 °F 87% 29.56 in 10.0 mi SW 4.6 mph - N/A   Overcast
11:54 PM 33.8 °F 28.6 °F 30.2 °F 87% 29.55 in 10.0 mi SW 5.8 mph - N/A   Overcast